Wind_Speed
26 26 25 25 25 25 25 26 27 27 28 29 30 31 32 33 33 34 35 35 35 36 36 35 35 35 34 34 33 33 33 32 32 31 30 29 28 27 26 25 24 23 22
27 27 27 27 27 27 27 28 29 29 30 31 32 33 34 35 36 36 37 37 38 38 38 38 38 38 37 36 36 35 35 34 34 33 33 31 31 30 29 28 26 25 24
29 29 29 29 29 29 29 30 31 31 33 34 35 36 37 38 38 39 39 40 40 41 41 41 41 41 40 40 39 38 37 37 36 36 35 34 33 33 32 30 29 28 27
31 30 30 31 31 31 31 32 33 34 35 37 38 39 40 41 41 42 42 43 43 43 44 44 44 44 43 43 42 41 40 40 39 38 37 37 36 35 35 34 32 31 30
32 32 32 32 33 33 34 35 36 37 38 40 41 42 43 44 44 44 44 45 45 45 46 46 46 46 45 45 44 43 43 42 42 41 40 39 39 38 37 36 36 34 33
34 34 34 34 35 35 36 37 38 39 41 42 44 44 45 46 46 46 46 47 47 47 47 47 47 46 46 46 45 45 44 44 43 43 43 42 41 40 40 39 38 37 36
36 36 36 36 37 38 38 39 41 42 43 45 47 47 47 47 47 47 48 47 47 47 47 47 47 47 47 47 47 47 47 46 45 45 45 44 43 43 42 42 41 40 39
38 38 38 38 39 40 41 42 43 45 46 48 49 49 48 47 47 47 47 47 47 47 47 47 48 47 48 48 49 49 49 49 48 47 47 47 46 46 45 44 43 42 41
40 40 40 41 42 42 43 44 46 48 49 50 50 51 51 49 48 46 46 46 46 47 47 48 49 50 51 51 52 52 52 51 51 50 49 49 49 48 48 46 45 44 44
42 42 42 43 43 44 45 47 49 50 51 51 51 51 51 50 50 48 46 46 46 47 48 50 51 52 53 53 53 53 54 54 54 53 52 51 51 50 49 49 48 47 46
44 44 44 44 45 46 48 49 50 51 51 51 51 50 50 49 49 49 47 46 47 48 50 52 53 54 54 54 54 54 55 56 56 55 54 54 53 53 51 50 50 49 48
45 45 45 46 47 48 50 50 51 51 51 50 50 49 49 48 48 48 47 47 48 49 51 53 54 54 54 54 54 55 55 56 56 56 56 55 54 53 53 53 50 50 48
46 46 47 48 49 50 50 50 50 49 49 48 48 48 48 47 47 47 47 47 48 49 50 51 52 53 52 52 53 54 55 55 55 55 55 55 56 55 54 53 52 52 51
47 47 48 49 50 50 50 49 48 47 47 46 46 46 46 46 46 46 47 48 49 48 47 48 48 49 49 50 50 50 51 52 52 51 51 52 53 54 53 51 50 50 49
48 48 49 49 49 49 48 47 46 46 45 45 44 44 44 44 45 46 47 48 48 46 45 44 45 45 45 46 45 44 45 46 46 46 45 47 48 51 50 49 48 48 46
48 48 49 49 48 46 45 45 44 44 44 43 43 43 43 44 44 45 46 45 45 44 43 42 41 40 40 39 39 39 39 39 38 38 39 43 44 46 46 47 47 47 47
48 48 47 46 44 43 43 43 43 42 42 42 42 42 43 43 43 44 43 42 42 41 40 38 37 36 35 34 34 34 32 31 30 31 33 36 38 40 41 42 43 45 46
46 45 43 42 42 41 41 41 41 41 41 41 41 42 42 42 41 41 40 40 39 38 37 35 34 32 32 31 30 29 29 27 26 28 28 30 32 35 37 38 40 42 43
42 41 41 40 40 39 39 39 39 39 39 39 40 40 40 40 39 38 38 37 37 35 34 33 32 30 29 29 28 27 26 26 26 27 28 29 30 32 34 36 38 40 42
39 38 38 37 37 37 37 37 36 37 38 38 38 38 38 37 37 36 36 35 34 33 32 31 30 29 29 28 28 27 27 27 27 28 29 30 30 31 33 36 38 39 41
35 35 34 34 34 34 34 34 35 35 35 36 36 36 36 36 35 35 34 33 32 31 31 30 30 30 30 29 29 29 29 29 29 30 30 30 31 33 34 36 37 39 41
32 31 31 31 31 31 32 33 33 33 33 34 34 34 34 34 34 33 33 32 32 31 31 31 31 31 31 31 31 30 30 31 31 31 32 32 34 35 36 37 39 40 42
29 29 28 28 29 29 30 30 31 31 32 33 33 33 33 33 33 32 32 32 32 32 32 32 32 33 33 33 33 33 33 34 34 34 35 36 37 38 40 41 43 44 45
26 26 26 26 27 28 28 29 30 31 31 32 32 32 32 32 32 32 32 32 32 33 33 33 34 34 35 35 35 36 37 37 38 39 39 40 42 43 45 45 46 48 49
24 24 24 25 25 26 27 28 29 30 31 32 32 32 32 32 32 33 33 33 33 34 34 35 36 36 37 37 38 39 39 40 41 42 43 44 46 47 49 49 50 51 52
22 23 23 24 25 27 28 29 30 31 31 32 32 33 33 33 33 33 34 34 35 36 36 36 37 38 38 39 40 41 42 43 44 45 46 48 49 49 50 51 52 52 53
Wind_Direction
290 292 294 295 296 298 300 301 302 303 303 304 304 304 304 304 304 303 302 301 300 299 297 296 294 293 292 290 288 286 284 282 281 279 278 277 275 274 272 270 269 269 268
287 289 292 294 295 297 298 299 300 301 301 301 302 302 302 302 302 301 301 300 299 298 297 296 295 293 291 289 287 285 283 281 279 278 277 275 274 272 270 268 268 267 267
284 287 290 291 292 295 296 297 297 298 299 299 300 299 300 300 300 299 299 299 298 297 296 296 294 293 292 290 288 286 284 281 279 277 276 274 273 271 269 267 266 266 266
281 284 286 288 290 292 294 295 296 297 297 298 298 298 298 298 298 298 298 297 297 296 295 295 294 293 292 291 289 286 284 281 279 277 275 274 272 270 269 267 265 265 264
279 281 283 285 288 290 291 292 294 295 296 296 296 297 298 298 298 298 298 297 296 296 295 294 294 293 292 291 289 287 284 281 279 277 275 274 272 270 269 267 266 265 264
277 279 281 283 285 287 289 290 292 292 293 294 294 295 296 296 297 298 297 296 296 295 294 294 293 292 291 290 289 287 285 282 279 276 275 274 272 270 269 267 266 265 264
275 278 279 281 283 285 287 288 290 291 292 292 293 294 295 296 296 296 295 296 295 295 294 294 293 292 291 290 289 287 285 282 279 276 274 272 271 270 269 268 266 265 264
274 276 278 280 282 284 285 287 288 290 291 292 293 293 293 294 295 295 296 296 295 295 294 294 293 292 291 290 288 286 284 282 279 276 273 271 270 269 268 267 266 265 264
274 276 278 280 282 284 286 287 289 290 291 292 293 294 294 294 294 295 295 295 295 295 294 294 293 292 291 290 288 286 283 281 278 276 273 271 269 268 267 266 266 265 264
274 276 278 280 282 284 286 288 289 290 291 292 293 294 295 296 296 295 295 295 294 294 294 294 293 292 291 290 288 286 283 279 276 274 272 270 268 267 266 265 265 264 264
273 275 277 279 282 284 287 288 289 290 291 292 293 294 295 296 297 297 296 296 295 295 294 294 293 292 291 290 287 285 282 278 275 271 269 267 266 265 264 264 264 263 263
273 275 277 280 282 285 287 288 289 290 291 292 293 295 295 296 297 297 297 297 296 296 296 295 294 293 291 290 288 285 282 278 274 269 267 266 264 263 263 263 263 263 263
273 275 278 281 283 285 286 288 289 290 291 292 293 294 295 296 296 296 297 298 298 298 297 297 295 294 292 291 289 286 282 278 274 269 266 265 263 263 263 261 261 262 263
274 276 279 281 283 285 286 288 289 290 291 292 293 294 295 295 296 297 298 299 300 300 300 299 297 295 294 293 292 289 283 279 275 272 265 263 263 262 261 261 261 262 262
275 277 280 282 284 285 287 288 289 290 291 292 293 294 294 295 296 297 299 300 301 302 302 301 300 298 297 296 294 292 288 283 279 274 267 264 263 262 262 260 260 261 262
275 278 280 282 284 285 287 288 290 290 291 292 293 293 294 295 296 298 299 300 302 303 303 303 303 302 300 300 300 296 292 286 282 278 272 267 267 264 265 263 261 262 261
276 278 280 281 283 285 287 288 289 290 291 292 293 294 294 295 296 298 300 301 303 304 305 306 305 306 306 305 305 300 296 292 285 283 276 273 270 266 264 263 262 264 266
276 277 279 281 283 285 286 287 288 289 290 292 293 294 294 296 297 299 300 302 303 304 306 308 309 310 309 309 310 306 300 297 291 285 282 278 273 269 266 264 265 266 266
275 277 279 280 283 284 286 287 288 289 291 292 293 294 295 296 298 300 301 303 304 304 305 309 311 312 311 310 311 310 305 301 296 291 286 282 279 273 269 269 268 267 267
274 276 278 280 282 284 285 287 288 290 292 293 294 295 296 297 299 301 302 303 304 304 305 307 310 312 311 310 309 307 305 302 298 294 289 286 282 277 274 272 270 269 268
273 275 278 280 282 283 285 287 289 291 293 294 295 296 297 298 299 301 303 303 304 304 305 306 307 308 309 309 309 307 304 302 299 296 292 288 285 281 278 276 274 272 271
272 274 277 279 281 284 286 288 290 292 294 296 297 298 299 299 300 301 302 303 303 303 304 305 306 307 307 307 306 306 305 303 300 298 294 291 288 285 282 280 278 276 274
271 273 276 279 282 284 287 289 291 293 296 297 298 299 300 300 300 301 301 302 303 303 303 304 305 305 305 305 304 304 303 301 300 298 295 293 290 288 285 283 281 279 277
269 272 276 279 283 286 289 291 293 295 297 298 299 300 300 300 300 301 301 301 302 303 304 304 304 304 304 304 303 302 302 301 299 297 295 293 291 290 288 286 284 282 281
269 273 277 281 285 289 291 293 295 297 298 299 300 301 301 301 301 301 301 302 302 303 303 304 304 304 304 304 303 302 301 300 299 297 296 294 292 291 289 287 285 284 283
269 274 279 284 288 291 293 295 297 298 299 300 301 301 301 301 300 300 301 302 302 303 303 304 304 304 304 304 303 303 302 301 300 299 297 296 294 292 290 288 287 285 284
Height
5867 5867 5866 5866 5865 5864 5863 5862 5861 5859 5858 5856 5854 5853 5851 5849 5847 5845 5843 5841 5838 5836 5834 5833 5831 5829 5828 5826 5825 5823 5822 5821 5820 5819 5818 5818 5817 5816 5816 5816 5816 5816 5816
5862 5862 5861 5861 5860 5859 5858 5857 5856 5854 5853 5851 5849 5847 5845 5843 5841 5839 5837 5834 5832 5829 5827 5826 5824 5822 5821 5819 5818 5816 5815 5814 5813 5812 5812 5811 5811 5810 5810 5810 5810 5810 5810
5857 5857 5856 5855 5854 5854 5853 5851 5850 5849 5847 5845 5843 5841 5839 5837 5835 5832 5830 5827 5824 5822 5820 5818 5816 5815 5813 5812 5810 5809 5808 5807 5806 5805 5805 5804 5804 5803 5803 5803 5803 5803 5804
5852 5852 5851 5850 5848 5848 5847 5845 5844 5842 5840 5838 5836 5834 5832 5830 5828 5825 5822 5819 5817 5814 5812 5809 5808 5806 5805 5803 5802 5801 5800 5799 5798 5797 5797 5796 5796 5796 5796 5796 5796 5796 5797
5846 5846 5845 5844 5842 5841 5840 5839 5837 5835 5834 5831 5829 5827 5825 5822 5820 5817 5814 5811 5808 5805 5803 5800 5799 5797 5795 5794 5793 5792 5791 5790 5789 5789 5788 5788 5788 5788 5788 5788 5789 5789 5790
5839 5839 5838 5837 5836 5835 5834 5832 5830 5829 5827 5824 5822 5820 5817 5814 5811 5809 5805 5802 5799 5796 5793 5791 5789 5787 5785 5784 5782 5781 5781 5780 5779 5779 5779 5778 5778 5779 5779 5779 5780 5781 5782
5832 5832 5831 5830 5829 5828 5827 5825 5823 5821 5819 5816 5813 5812 5809 5806 5803 5800 5796 5793 5790 5786 5784 5781 5779 5777 5775 5773 5772 5770 5769 5769 5768 5768 5768 5768 5768 5768 5769 5770 5770 5771 5773
5825 5824 5824 5823 5822 5820 5819 5817 5815 5812 5810 5807 5804 5801 5801 5799 5795 5790 5787 5784 5780 5777 5774 5771 5768 5766 5764 5762 5760 5758 5757 5757 5756 5756 5756 5756 5757 5757 5758 5759 5760 5761 5762
5817 5816 5815 5815 5813 5812 5810 5808 5805 5803 5801 5798 5794 5791 5789 5788 5786 5783 5778 5774 5770 5767 5764 5760 5757 5754 5751 5749 5747 5746 5744 5743 5743 5743 5743 5744 5744 5745 5746 5747 5748 5749 5751
5808 5807 5806 5805 5804 5802 5801 5799 5796 5793 5790 5788 5784 5780 5777 5775 5773 5772 5770 5765 5761 5757 5753 5749 5745 5742 5738 5736 5733 5731 5730 5729 5728 5728 5729 5729 5730 5731 5732 5734 5735 5737 5738
5799 5798 5797 5796 5795 5793 5791 5789 5786 5783 5779 5777 5774 5771 5767 5764 5761 5758 5758 5755 5751 5746 5742 5737 5733 5729 5725 5722 5719 5716 5714 5712 5712 5712 5713 5714 5715 5716 5718 5719 5721 5723 5725
5790 5789 5788 5787 5785 5783 5781 5778 5775 5772 5769 5766 5763 5760 5757 5754 5750 5747 5745 5743 5740 5735 5730 5725 5720 5715 5711 5707 5703 5700 5697 5695 5694 5695 5696 5697 5699 5700 5702 5705 5707 5709 5711
5780 5779 5778 5777 5775 5773 5771 5768 5765 5762 5759 5756 5753 5749 5746 5743 5740 5736 5733 5731 5727 5724 5718 5712 5706 5700 5696 5692 5688 5684 5681 5678 5677 5677 5679 5680 5682 5684 5687 5689 5692 5694 5696
5770 5769 5768 5766 5765 5763 5760 5758 5755 5752 5749 5746 5742 5739 5736 5732 5729 5725 5722 5718 5715 5711 5705 5699 5693 5687 5681 5677 5673 5668 5664 5661 5660 5660 5662 5664 5666 5669 5672 5675 5677 5680 5683
5760 5759 5757 5756 5754 5752 5749 5747 5744 5741 5738 5735 5732 5729 5726 5722 5718 5714 5710 5706 5702 5698 5694 5687 5681 5675 5668 5664 5659 5655 5650 5647 5646 5646 5648 5650 5652 5655 5658 5661 5663 5666 5669
5749 5748 5747 5745 5743 5741 5739 5736 5734 5731 5728 5725 5722 5719 5716 5712 5708 5704 5699 5694 5689 5685 5681 5676 5670 5664 5658 5652 5648 5643 5640 5637 5635 5635 5636 5638 5640 5643 5646 5648 5651 5653 5656
5739 5738 5736 5735 5733 5731 5729 5726 5724 5721 5718 5716 5712 5709 5706 5702 5698 5693 5689 5684 5679 5674 5670 5665 5660 5654 5649 5644 5639 5635 5631 5628 5627 5626 5627 5628 5630 5632 5634 5636 5639 5641 5643
5728 5727 5726 5725 5723 5721 5719 5716 5714 5711 5709 5706 5703 5699 5696 5692 5688 5684 5679 5674 5670 5665 5661 5656 5651 5646 5641 5637 5633 5629 5625 5623 5621 5620 5620 5620 5621 5622 5624 5626 5627 5629 5631
5718 5717 5716 5715 5713 5711 5709 5707 5704 5702 5699 5696 5693 5690 5686 5682 5678 5674 5669 5665 5661 5656 5652 5648 5643 5639 5635 5631 5627 5623 5620 5617 5615 5614 5613 5613 5613 5613 5614 5615 5616 5618 5619
5708 5707 5706 5705 5703 5702 5700 5698 5695 5693 5690 5687 5684 5680 5677 5673 5669 5665 5661 5656 5652 5648 5644 5640 5636 5632 5629 5625 5621 5618 5615 5612 5610 5608 5606 5605 5605 5604 5604 5605 5605 5606 5606
5699 5698 5697 5696 5694 5693 5691 5689 5687 5684 5681 5678 5675 5671 5668 5664 5660 5656 5652 5648 5645 5641 5637 5633 5630 5626 5622 5618 5615 5612 5609 5606 5604 5602 5599 5598 5596 5596 5595 5594 5594 5593 5593
5690 5689 5688 5687 5686 5685 5683 5680 5678 5676 5673 5670 5666 5663 5659 5656 5652 5648 5644 5641 5637 5633 5630 5626 5622 5619 5615 5612 5608 5605 5602 5599 5596 5594 5591 5589 5587 5586 5584 5583 5582 5581 5580
5682 5681 5680 5679 5678 5676 5675 5672 5670 5667 5664 5661 5658 5655 5651 5647 5644 5640 5637 5633 5629 5625 5622 5619 5615 5611 5607 5604 5600 5597 5594 5591 5587 5585 5582 5579 5577 5575 5573 5571 5569 5567 5566
5674 5673 5673 5672 5670 5669 5667 5664 5662 5659 5656 5653 5650 5647 5643 5640 5636 5633 5629 5625 5621 5618 5614 5610 5606 5602 5599 5595 5591 5588 5584 5581 5577 5574 5571 5568 5565 5562 5559 5556 5554 5551 5549
5667 5666 5665 5664 5663 5661 5659 5657 5654 5652 5649 5646 5642 5639 5635 5632 5628 5625 5621 5617 5614 5610 5606 5601 5597 5593 5589 5585 5582 5578 5574 5570 5566 5563 5559 5556 5552 5548 5544 5541 5538 5535 5532
5659 5659 5658 5657 5655 5654 5651 5649 5647 5644 5641 5638 5635 5631 5628 5624 5620 5616 5613 5609 5605 5601 5597 5593 5588 5584 5580 5575 5571 5567 5563 5558 5554 5550 5546 5542 5537 5533 5529 5525 5521 5518 5515